Time,TemperatureF,DewpointF,PressureIn,WindDirection,WindDirectionDegrees,WindSpeedMPH,WindSpeedGustMPH,Humidity,HourlyPrecipIn,Conditions,Clouds,dailyrainin,SoftwareType,DateUTC
2015-07-27 00:00:00,87.2,55.4,29.69,South,190,0.0,0.0,34,0.00,,,0.00,Wunderground v.1.15,2015-07-27 07:00:00,
2015-07-27 00:05:00,86.9,55.2,29.69,South,190,0.0,0.0,34,0.00,,,0.00,Wunderground v.1.15,2015-07-27 07:05:00,
2015-07-27 00:10:00,86.6,54.9,29.69,ESE,123,0.0,0.0,34,0.00,,,0.00,Wunderground v.1.15,2015-07-27 07:10:00,
2015-07-27 00:16:00,86.3,56.2,29.69,ESE,113,3.0,3.0,36,0.00,,,0.00,Wunderground v.1.15,2015-07-27 07:16:00,
2015-07-27 00:22:00,86.3,57.0,29.69,ESE,108,0.0,1.0,37,0.00,,,0.00,Wunderground v.1.15,2015-07-27 07:22:00,
2015-07-27 00:28:00,86.1,56.8,29.69,ESE,108,0.0,1.0,37,0.00,,,0.00,Wunderground v.1.15,2015-07-27 07:28:00,
2015-07-27 00:33:00,85.9,57.3,29.69,ESE,108,0.0,0.0,38,0.00,,,0.00,Wunderground v.1.15,2015-07-27 07:33:00,
2015-07-27 00:38:00,85.6,57.8,29.69,ESE,108,0.0,0.0,39,0.00,,,0.00,Wunderground v.1.15,2015-07-27 07:38:00,
2015-07-27 00:44:00,85.2,58.2,29.69,ESE,108,0.0,0.0,40,0.00,,,0.00,Wunderground v.1.15,2015-07-27 07:44:00,
2015-07-27 00:49:00,85.0,58.0,29.69,ESE,108,0.0,0.0,40,0.00,,,0.00,Wunderground v.1.15,2015-07-27 07:49:00,
2015-07-27 00:55:00,84.7,57.7,29.69,ESE,108,0.0,0.0,40,0.00,,,0.00,Wunderground v.1.15,2015-07-27 07:55:00,
2015-07-27 01:00:00,84.6,57.6,29.69,ESE,108,0.0,0.0,40,0.00,,,0.00,Wunderground v.1.15,2015-07-27 08:00:00,
2015-07-27 01:05:00,84.3,58.0,29.69,ESE,108,0.0,0.0,41,0.00,,,0.00,Wunderground v.1.15,2015-07-27 08:05:00,
2015-07-27 01:11:00,84.1,57.9,29.70,ESE,108,0.0,0.0,41,0.00,,,0.00,Wunderground v.1.15,2015-07-27 08:11:00,
2015-07-27 01:17:00,83.7,58.2,29.70,ESE,108,0.0,0.0,42,0.00,,,0.00,Wunderground v.1.15,2015-07-27 08:17:00,
2015-07-27 01:22:00,83.5,58.0,29.69,ESE,108,0.0,0.0,42,0.00,,,0.00,Wunderground v.1.15,2015-07-27 08:22:00,
2015-07-27 01:28:00,83.3,58.5,29.69,ESE,108,0.0,0.0,43,0.00,,,0.00,Wunderground v.1.15,2015-07-27 08:28:00,
2015-07-27 01:34:00,82.9,58.1,29.69,ESE,108,0.0,0.0,43,0.00,,,0.00,Wunderground v.1.15,2015-07-27 08:34:00,
2015-07-27 01:46:00,82.4,58.3,29.69,ESE,108,0.0,0.0,44,0.00,,,0.00,Wunderground v.1.15,2015-07-27 08:46:00,
2015-07-27 01:52:00,82.2,57.5,29.69,ESE,108,0.0,0.0,43,0.00,,,0.00,Wunderground v.1.15,2015-07-27 08:52:00,
2015-07-27 01:58:00,82.0,57.9,29.69,ESE,108,0.0,0.0,44,0.00,,,0.00,Wunderground v.1.15,2015-07-27 08:58:00,
2015-07-27 02:03:00,81.8,57.8,29.69,ESE,108,0.0,0.0,44,0.00,,,0.00,Wunderground v.1.15,2015-07-27 09:03:00,
2015-07-27 02:08:00,81.7,57.7,29.68,ESE,108,0.0,0.0,44,0.00,,,0.00,Wunderground v.1.15,2015-07-27 09:08:00,
2015-07-27 02:13:00,81.5,58.7,29.68,ESE,108,0.0,0.0,46,0.00,,,0.00,Wunderground v.1.15,2015-07-27 09:13:00,
2015-07-27 02:18:00,81.3,58.5,29.68,ESE,108,0.0,0.0,46,0.00,,,0.00,Wunderground v.1.15,2015-07-27 09:18:00,
2015-07-27 02:23:00,81.2,58.5,29.68,ESE,108,0.0,0.0,46,0.00,,,0.00,Wunderground v.1.15,2015-07-27 09:23:00,
2015-07-27 02:28:00,81.1,58.4,29.68,ESE,108,0.0,0.0,46,0.00,,,0.00,Wunderground v.1.15,2015-07-27 09:28:00,
2015-07-27 02:33:00,80.9,58.8,29.68,ESE,108,0.0,0.0,47,0.00,,,0.00,Wunderground v.1.15,2015-07-27 09:33:00,
2015-07-27 02:38:00,80.7,58.6,29.68,ESE,108,0.0,0.0,47,0.00,,,0.00,Wunderground v.1.15,2015-07-27 09:38:00,
2015-07-27 02:43:00,80.6,58.5,29.68,ESE,108,0.0,0.0,47,0.00,,,0.00,Wunderground v.1.15,2015-07-27 09:43:00,
2015-07-27 02:48:00,80.6,58.5,29.68,ESE,108,0.0,0.0,47,0.00,,,0.00,Wunderground v.1.15,2015-07-27 09:48:00,
2015-07-27 02:53:00,80.5,59.0,29.68,ESE,108,0.0,0.0,48,0.00,,,0.00,Wunderground v.1.15,2015-07-27 09:53:00,
2015-07-27 02:58:00,80.5,59.0,29.68,ESE,108,0.0,0.0,48,0.00,,,0.00,Wunderground v.1.15,2015-07-27 09:58:00,
2015-07-27 03:03:00,80.4,58.9,29.68,ESE,108,0.0,0.0,48,0.00,,,0.00,Wunderground v.1.15,2015-07-27 10:03:00,
2015-07-27 03:08:00,80.4,58.9,29.68,ESE,108,0.0,0.0,48,0.00,,,0.00,Wunderground v.1.15,2015-07-27 10:08:00,
2015-07-27 03:13:00,80.3,58.8,29.69,ESE,108,0.0,0.0,48,0.00,,,0.00,Wunderground v.1.15,2015-07-27 10:13:00,
2015-07-27 03:18:00,80.3,58.8,29.69,ESE,108,0.0,0.0,48,0.00,,,0.00,Wunderground v.1.15,2015-07-27 10:18:00,
2015-07-27 03:23:00,80.2,59.3,29.68,ESE,108,0.0,0.0,49,0.00,,,0.00,Wunderground v.1.15,2015-07-27 10:23:00,
2015-07-27 03:34:00,80.2,58.7,29.69,ESE,108,0.0,0.0,48,0.00,,,0.00,Wunderground v.1.15,2015-07-27 10:34:00,
2015-07-27 03:39:00,80.1,58.6,29.69,ESE,108,0.0,0.0,48,0.00,,,0.00,Wunderground v.1.15,2015-07-27 10:39:00,
2015-07-27 03:44:00,80.1,58.6,29.69,ESE,108,0.0,0.0,48,0.00,,,0.00,Wunderground v.1.15,2015-07-27 10:44:00,
2015-07-27 03:49:00,80.0,59.1,29.69,ESE,108,0.0,0.0,49,0.00,,,0.00,Wunderground v.1.15,2015-07-27 10:49:00,
2015-07-27 03:54:00,80.0,59.1,29.69,ESE,108,0.0,0.0,49,0.00,,,0.00,Wunderground v.1.15,2015-07-27 10:54:00,
2015-07-27 03:59:00,79.9,59.0,29.69,ESE,108,0.0,0.0,49,0.00,,,0.00,Wunderground v.1.15,2015-07-27 10:59:00,
2015-07-27 04:04:00,79.9,59.0,29.69,ESE,108,0.0,0.0,49,0.00,,,0.00,Wunderground v.1.15,2015-07-27 11:04:00,
2015-07-27 04:09:00,79.9,59.0,29.69,ESE,108,0.0,0.0,49,0.00,,,0.00,Wunderground v.1.15,2015-07-27 11:09:00,
2015-07-27 04:14:00,79.8,58.9,29.69,ESE,108,0.0,0.0,49,0.00,,,0.00,Wunderground v.1.15,2015-07-27 11:14:00,
2015-07-27 04:19:00,79.8,58.9,29.69,ESE,108,0.0,0.0,49,0.00,,,0.00,Wunderground v.1.15,2015-07-27 11:19:00,
2015-07-27 04:24:00,79.8,58.9,29.69,ESE,108,0.0,0.0,49,0.00,,,0.00,Wunderground v.1.15,2015-07-27 11:24:00,
2015-07-27 04:29:00,79.8,59.5,29.69,ESE,108,0.0,0.0,50,0.00,,,0.00,Wunderground v.1.15,2015-07-27 11:29:00,
2015-07-27 04:34:00,79.7,59.4,29.70,ESE,108,0.0,0.0,50,0.00,,,0.00,Wunderground v.1.15,2015-07-27 11:34:00,
2015-07-27 04:39:00,79.7,58.8,29.70,ESE,108,0.0,0.0,49,0.00,,,0.00,Wunderground v.1.15,2015-07-27 11:39:00,
2015-07-27 04:44:00,79.7,59.4,29.70,ESE,108,0.0,0.0,50,0.00,,,0.00,Wunderground v.1.15,2015-07-27 11:44:00,
2015-07-27 04:49:00,79.8,59.5,29.70,ESE,108,0.0,0.0,50,0.00,,,0.00,Wunderground v.1.15,2015-07-27 11:49:00,
2015-07-27 04:54:00,79.8,59.5,29.70,ESE,108,0.0,0.0,50,0.00,,,0.00,Wunderground v.1.15,2015-07-27 11:54:00,
2015-07-27 04:59:00,79.8,59.5,29.70,ESE,108,0.0,0.0,50,0.00,,,0.00,Wunderground v.1.15,2015-07-27 11:59:00,
2015-07-27 05:04:00,79.8,58.9,29.70,ESE,108,0.0,0.0,49,0.00,,,0.00,Wunderground v.1.15,2015-07-27 12:04:00,
2015-07-27 05:09:00,79.8,58.9,29.70,ESE,108,0.0,0.0,49,0.00,,,0.00,Wunderground v.1.15,2015-07-27 12:09:00,
2015-07-27 05:14:00,79.8,58.9,29.70,ESE,108,0.0,0.0,49,0.00,,,0.00,Wunderground v.1.15,2015-07-27 12:14:00,
2015-07-27 05:19:00,79.8,58.9,29.71,ESE,108,0.0,0.0,49,0.00,,,0.00,Wunderground v.1.15,2015-07-27 12:19:00,
2015-07-27 05:24:00,79.8,59.5,29.71,ESE,108,0.0,0.0,50,0.00,,,0.00,Wunderground v.1.15,2015-07-27 12:24:00,
2015-07-27 05:29:00,79.7,58.8,29.71,ESE,108,0.0,0.0,49,0.00,,,0.00,Wunderground v.1.15,2015-07-27 12:29:00,
2015-07-27 05:34:00,79.7,59.4,29.71,ESE,108,0.0,0.0,50,0.00,,,0.00,Wunderground v.1.15,2015-07-27 12:34:00,
2015-07-27 05:39:00,79.6,59.3,29.71,ESE,108,0.0,0.0,50,0.00,,,0.00,Wunderground v.1.15,2015-07-27 12:39:00,
2015-07-27 05:54:00,79.5,59.2,29.71,ESE,108,0.0,0.0,50,0.00,,,0.00,Wunderground v.1.15,2015-07-27 12:54:00,
2015-07-27 05:59:00,79.5,59.2,29.71,ESE,108,0.0,0.0,50,0.00,,,0.00,Wunderground v.1.15,2015-07-27 12:59:00,
2015-07-27 06:04:00,79.5,59.2,29.71,ESE,108,0.0,0.0,50,0.00,,,0.00,Wunderground v.1.15,2015-07-27 13:04:00,
2015-07-27 06:10:00,79.5,59.8,29.71,ESE,108,0.0,0.0,51,0.00,,,0.00,Wunderground v.1.15,2015-07-27 13:10:00,
2015-07-27 06:15:00,79.5,59.2,29.71,ESE,108,0.0,0.0,50,0.00,,,0.00,Wunderground v.1.15,2015-07-27 13:15:00,
2015-07-27 06:20:00,79.5,59.2,29.72,ESE,108,0.0,0.0,50,0.00,,,0.00,Wunderground v.1.15,2015-07-27 13:20:00,
2015-07-27 06:30:00,79.6,59.9,29.72,ESE,108,0.0,0.0,51,0.00,,,0.00,Wunderground v.1.15,2015-07-27 13:30:00,
2015-07-27 06:35:00,79.6,59.9,29.72,ESE,108,0.0,0.0,51,0.00,,,0.00,Wunderground v.1.15,2015-07-27 13:35:00,
2015-07-27 06:40:00,79.7,60.0,29.72,ESE,108,0.0,0.0,51,0.00,,,0.00,Wunderground v.1.15,2015-07-27 13:40:00,
2015-07-27 06:45:00,79.8,60.1,29.73,ESE,108,0.0,0.0,51,0.00,,,0.00,Wunderground v.1.15,2015-07-27 13:45:00,
2015-07-27 06:50:00,79.9,60.2,29.72,ESE,108,0.0,0.0,51,0.00,,,0.00,Wunderground v.1.15,2015-07-27 13:50:00,
2015-07-27 06:55:00,80.0,60.2,29.73,ESE,108,0.0,0.0,51,0.00,,,0.00,Wunderground v.1.15,2015-07-27 13:55:00,
2015-07-27 07:00:00,80.1,59.8,29.73,ESE,108,0.0,0.0,50,0.00,,,0.00,Wunderground v.1.15,2015-07-27 14:00:00,
2015-07-27 07:05:00,80.3,60.0,29.73,ESE,108,0.0,0.0,50,0.00,,,0.00,Wunderground v.1.15,2015-07-27 14:05:00,
2015-07-27 07:10:00,80.3,60.0,29.73,ESE,108,0.0,0.0,50,0.00,,,0.00,Wunderground v.1.15,2015-07-27 14:10:00,
2015-07-27 07:15:00,80.5,60.1,29.73,ESE,108,0.0,0.0,50,0.00,,,0.00,Wunderground v.1.15,2015-07-27 14:15:00,
2015-07-27 07:20:00,80.6,60.2,29.74,ESE,108,0.0,0.0,50,0.00,,,0.00,Wunderground v.1.15,2015-07-27 14:20:00,
2015-07-27 07:25:00,80.8,60.4,29.74,ESE,108,0.0,0.0,50,0.00,,,0.00,Wunderground v.1.15,2015-07-27 14:25:00,
2015-07-27 07:30:00,80.9,60.5,29.73,ESE,108,0.0,0.0,50,0.00,,,0.00,Wunderground v.1.15,2015-07-27 14:30:00,
2015-07-27 07:35:00,81.1,60.1,29.74,ESE,108,0.0,0.0,49,0.00,,,0.00,Wunderground v.1.15,2015-07-27 14:35:00,
2015-07-27 07:40:00,81.4,60.4,29.74,ESE,108,0.0,0.0,49,0.00,,,0.00,Wunderground v.1.15,2015-07-27 14:40:00,
2015-07-27 07:45:00,81.7,60.7,29.74,ESE,108,0.0,0.0,49,0.00,,,0.00,Wunderground v.1.15,2015-07-27 14:45:00,
2015-07-27 07:50:00,82.0,60.4,29.74,ESE,108,0.0,0.0,48,0.00,,,0.00,Wunderground v.1.15,2015-07-27 14:50:00,
2015-07-27 08:00:00,82.5,60.8,29.74,ESE,108,0.0,0.0,48,0.00,,,0.00,Wunderground v.1.15,2015-07-27 15:00:00,
2015-07-27 08:05:00,82.9,60.6,29.74,ESE,108,0.0,0.0,47,0.00,,,0.00,Wunderground v.1.15,2015-07-27 15:05:00,
2015-07-27 08:10:00,83.2,60.9,29.74,ESE,108,0.0,0.0,47,0.00,,,0.00,Wunderground v.1.15,2015-07-27 15:10:00,
2015-07-27 08:15:00,83.4,60.4,29.74,ESE,108,0.0,0.0,46,0.00,,,0.00,Wunderground v.1.15,2015-07-27 15:15:00,
2015-07-27 08:20:00,83.6,60.6,29.74,ESE,108,0.0,0.0,46,0.00,,,0.00,Wunderground v.1.15,2015-07-27 15:20:00,
2015-07-27 08:25:00,83.9,60.9,29.75,ESE,108,0.0,0.0,46,0.00,,,0.00,Wunderground v.1.15,2015-07-27 15:25:00,
2015-07-27 08:30:00,84.2,61.2,29.75,ESE,108,0.0,0.0,46,0.00,,,0.00,Wunderground v.1.15,2015-07-27 15:30:00,
2015-07-27 08:35:00,84.5,60.8,29.75,ESE,108,0.0,0.0,45,0.00,,,0.00,Wunderground v.1.15,2015-07-27 15:35:00,
2015-07-27 08:40:00,84.8,61.1,29.75,ESE,108,0.0,0.0,45,0.00,,,0.00,Wunderground v.1.15,2015-07-27 15:40:00,
2015-07-27 08:45:00,85.1,60.7,29.75,ESE,108,0.0,0.0,44,0.00,,,0.00,Wunderground v.1.15,2015-07-27 15:45:00,
2015-07-27 08:50:00,85.8,61.4,29.75,ESE,108,0.0,0.0,44,0.00,,,0.00,Wunderground v.1.15,2015-07-27 15:50:00,
2015-07-27 08:55:00,86.4,61.3,29.75,ESE,108,0.0,0.0,43,0.00,,,0.00,Wunderground v.1.15,2015-07-27 15:55:00,
2015-07-27 09:00:00,86.8,61.0,29.75,ESE,108,0.0,0.0,42,0.00,,,0.00,Wunderground v.1.15,2015-07-27 16:00:00,
2015-07-27 09:05:00,87.3,60.7,29.75,ESE,108,0.0,0.0,41,0.00,,,0.00,Wunderground v.1.15,2015-07-27 16:05:00,
2015-07-27 09:10:00,87.7,61.1,29.75,ESE,108,0.0,0.0,41,0.00,,,0.00,Wunderground v.1.15,2015-07-27 16:10:00,
2015-07-27 09:15:00,88.0,60.7,29.75,ESE,108,0.0,0.0,40,0.00,,,0.00,Wunderground v.1.15,2015-07-27 16:15:00,
2015-07-27 09:21:00,88.3,60.9,29.75,ESE,108,0.0,0.0,40,0.00,,,0.00,Wunderground v.1.15,2015-07-27 16:21:00,
2015-07-27 09:26:00,88.7,61.3,29.74,ESE,108,0.0,0.0,40,0.00,,,0.00,Wunderground v.1.15,2015-07-27 16:26:00,
2015-07-27 09:31:00,89.0,60.8,29.74,ESE,108,0.0,0.0,39,0.00,,,0.00,Wunderground v.1.15,2015-07-27 16:31:00,
2015-07-27 09:36:00,89.5,61.3,29.75,ESE,108,0.0,0.0,39,0.00,,,0.00,Wunderground v.1.15,2015-07-27 16:36:00,
2015-07-27 09:41:00,89.9,60.9,29.75,ESE,108,0.0,0.0,38,0.00,,,0.00,Wunderground v.1.15,2015-07-27 16:41:00,
2015-07-27 09:46:00,90.1,61.1,29.75,ESE,108,2.0,4.0,38,0.00,,,0.00,Wunderground v.1.15,2015-07-27 16:46:00,
2015-07-27 09:51:00,90.1,61.1,29.75,ESE,108,1.0,3.0,38,0.00,,,0.00,Wunderground v.1.15,2015-07-27 16:51:00,
2015-07-27 09:56:00,90.2,60.4,29.75,ESE,108,0.0,4.0,37,0.00,,,0.00,Wunderground v.1.15,2015-07-27 16:56:00,
2015-07-27 10:01:00,90.2,60.4,29.75,ESE,108,0.0,1.0,37,0.00,,,0.00,Wunderground v.1.15,2015-07-27 17:01:00,
2015-07-27 10:06:00,90.7,61.6,29.74,ESE,108,0.0,3.0,38,0.00,,,0.00,Wunderground v.1.15,2015-07-27 17:06:00,
2015-07-27 10:11:00,91.3,61.4,29.74,ESE,108,0.0,0.0,37,0.00,,,0.00,Wunderground v.1.15,2015-07-27 17:11:00,
2015-07-27 10:16:00,91.8,61.0,29.74,ESE,108,0.0,2.0,36,0.00,,,0.00,Wunderground v.1.15,2015-07-27 17:16:00,
2015-07-27 10:21:00,92.2,61.4,29.74,ESE,108,0.0,0.0,36,0.00,,,0.00,Wunderground v.1.15,2015-07-27 17:21:00,
2015-07-27 10:26:00,92.7,61.0,29.74,ESE,108,0.0,3.0,35,0.00,,,0.00,Wunderground v.1.15,2015-07-27 17:26:00,
2015-07-27 10:31:00,93.0,60.5,29.74,East,101,5.0,5.0,34,0.00,,,0.00,Wunderground v.1.15,2015-07-27 17:31:00,
2015-07-27 10:36:00,93.4,60.0,29.74,East,91,2.0,6.0,33,0.00,,,0.00,Wunderground v.1.15,2015-07-27 17:36:00,
2015-07-27 10:41:00,93.4,60.0,29.74,ENE,61,2.0,5.0,33,0.00,,,0.00,Wunderground v.1.15,2015-07-27 17:41:00,
2015-07-27 10:51:00,94.1,57.9,29.74,NNE,31,3.0,4.0,30,0.00,,,0.00,Wunderground v.1.15,2015-07-27 17:51:00,
2015-07-27 10:56:00,94.2,56.1,29.74,NNE,31,1.0,4.0,28,0.00,,,0.00,Wunderground v.1.15,2015-07-27 17:56:00,
2015-07-27 11:01:00,94.3,56.2,29.73,NNE,25,0.0,1.0,28,0.00,,,0.00,Wunderground v.1.15,2015-07-27 18:01:00,
2015-07-27 11:11:00,95.6,57.3,29.73,NNE,23,3.0,4.0,28,0.00,,,0.00,Wunderground v.1.15,2015-07-27 18:11:00,
2015-07-27 11:16:00,96.0,55.6,29.73,NNE,23,0.0,4.0,26,0.00,,,0.00,Wunderground v.1.15,2015-07-27 18:16:00,
2015-07-27 11:21:00,96.4,54.8,29.73,NNE,23,0.0,2.0,25,0.00,,,0.00,Wunderground v.1.15,2015-07-27 18:21:00,
2015-07-27 11:26:00,96.9,54.1,29.73,North,355,6.0,7.0,24,0.00,,,0.00,Wunderground v.1.15,2015-07-27 18:26:00,
2015-07-27 11:31:00,97.1,51.9,29.72,NW,321,3.0,6.0,22,0.00,,,0.00,Wunderground v.1.15,2015-07-27 18:31:00,
2015-07-27 11:36:00,96.8,46.3,29.72,NW,320,3.0,6.0,18,0.00,,,0.00,Wunderground v.1.15,2015-07-27 18:36:00,
2015-07-27 11:41:00,96.7,49.0,29.72,NW,320,3.0,3.0,20,0.00,,,0.00,Wunderground v.1.15,2015-07-27 18:41:00,
2015-07-27 11:47:00,96.7,52.8,29.72,NW,320,0.0,4.0,23,0.00,,,0.00,Wunderground v.1.15,2015-07-27 18:47:00,
2015-07-27 11:51:00,96.9,53.0,29.72,NW,324,0.0,1.0,23,0.00,,,0.00,Wunderground v.1.15,2015-07-27 18:51:00,
2015-07-27 11:56:00,97.1,53.1,29.71,ENE,78,0.0,7.0,23,0.00,,,0.00,Wunderground v.1.15,2015-07-27 18:56:00,
2015-07-27 12:01:00,97.8,53.7,29.71,NE,38,6.0,7.0,23,0.00,,,0.00,Wunderground v.1.15,2015-07-27 19:01:00,
2015-07-27 12:07:00,97.9,52.6,29.71,North,355,4.0,7.0,22,0.00,,,0.00,Wunderground v.1.15,2015-07-27 19:07:00,
2015-07-27 12:12:00,97.9,51.3,29.71,NNE,13,0.0,5.0,21,0.00,,,0.00,Wunderground v.1.15,2015-07-27 19:12:00,
2015-07-27 12:17:00,98.2,52.8,29.70,NNW,340,4.0,7.0,22,0.00,,,0.00,Wunderground v.1.15,2015-07-27 19:17:00,
2015-07-27 12:22:00,98.3,51.7,29.71,NW,319,3.0,10.0,21,0.00,,,0.00,Wunderground v.1.15,2015-07-27 19:22:00,
2015-07-27 12:27:00,98.3,51.7,29.71,NW,310,0.0,10.0,21,0.00,,,0.00,Wunderground v.1.15,2015-07-27 19:27:00,
2015-07-27 12:32:00,98.2,51.6,29.70,NW,321,3.0,3.0,21,0.00,,,0.00,Wunderground v.1.15,2015-07-27 19:32:00,
2015-07-27 12:37:00,98.1,51.5,29.70,NW,325,0.0,3.0,21,0.00,,,0.00,Wunderground v.1.15,2015-07-27 19:37:00,
2015-07-27 12:42:00,98.7,52.0,29.70,NW,319,0.0,4.0,21,0.00,,,0.00,Wunderground v.1.15,2015-07-27 19:42:00,
2015-07-27 12:47:00,99.1,51.0,29.70,WNW,300,0.0,7.0,20,0.00,,,0.00,Wunderground v.1.15,2015-07-27 19:47:00,
2015-07-27 12:52:00,99.5,51.3,29.70,NW,311,2.0,4.0,20,0.00,,,0.00,Wunderground v.1.15,2015-07-27 19:52:00,
2015-07-27 12:57:00,99.6,51.4,29.70,NW,312,0.0,4.0,20,0.00,,,0.00,Wunderground v.1.15,2015-07-27 19:57:00,
2015-07-27 13:02:00,99.5,51.3,29.69,NNW,340,3.0,7.0,20,0.00,,,0.00,Wunderground v.1.15,2015-07-27 20:02:00,
2015-07-27 13:07:00,99.9,51.7,29.69,NW,314,0.0,7.0,20,0.00,,,0.00,Wunderground v.1.15,2015-07-27 20:07:00,
2015-07-27 13:12:00,100.3,52.0,29.69,NW,304,0.0,5.0,20,0.00,,,0.00,Wunderground v.1.15,2015-07-27 20:12:00,
2015-07-27 13:17:00,101.1,52.6,29.69,WNW,303,0.0,5.0,20,0.00,,,0.00,Wunderground v.1.15,2015-07-27 20:17:00,
2015-07-27 13:22:00,101.4,51.5,29.68,SE,135,2.0,5.0,19,0.00,,,0.00,Wunderground v.1.15,2015-07-27 20:22:00,
2015-07-27 13:27:00,101.8,53.2,29.68,WSW,238,6.0,6.0,20,0.00,,,0.00,Wunderground v.1.15,2015-07-27 20:27:00,
2015-07-27 13:32:00,101.6,51.6,29.68,West,275,4.0,9.0,19,0.00,,,0.00,Wunderground v.1.15,2015-07-27 20:32:00,
2015-07-27 13:37:00,101.4,52.9,29.68,West,267,1.0,9.0,20,0.00,,,0.00,Wunderground v.1.15,2015-07-27 20:37:00,
2015-07-27 13:42:00,101.2,52.7,29.68,WNW,289,1.0,7.0,20,0.00,,,0.00,Wunderground v.1.15,2015-07-27 20:42:00,
2015-07-27 13:47:00,101.0,52.6,29.68,WNW,292,0.0,7.0,20,0.00,,,0.00,Wunderground v.1.15,2015-07-27 20:47:00,
2015-07-27 13:52:00,101.1,51.2,29.67,NW,319,9.0,9.0,19,0.00,,,0.00,Wunderground v.1.15,2015-07-27 20:52:00,
2015-07-27 13:57:00,101.5,51.6,29.67,WNW,286,4.0,9.0,19,0.00,,,0.00,Wunderground v.1.15,2015-07-27 20:57:00,
2015-07-27 14:02:00,102.0,52.0,29.66,NNW,347,12.0,14.0,19,0.00,,,0.00,Wunderground v.1.15,2015-07-27 21:02:00,
2015-07-27 14:07:00,102.3,50.8,29.67,North,355,4.0,14.0,18,0.00,,,0.00,Wunderground v.1.15,2015-07-27 21:07:00,
2015-07-27 14:12:00,102.3,52.2,29.67,NW,324,2.0,7.0,19,0.00,,,0.00,Wunderground v.1.15,2015-07-27 21:12:00,
2015-07-27 14:17:00,102.3,50.8,29.67,NW,318,2.0,7.0,18,0.00,,,0.00,Wunderground v.1.15,2015-07-27 21:17:00,
2015-07-27 14:22:00,102.2,50.7,29.66,North,5,9.0,11.0,18,0.00,,,0.00,Wunderground v.1.15,2015-07-27 21:22:00,
2015-07-27 14:27:00,102.0,50.5,29.66,West,281,2.0,11.0,18,0.00,,,0.00,Wunderground v.1.15,2015-07-27 21:27:00,
2015-07-27 14:32:00,101.7,50.3,29.66,NW,313,2.0,5.0,18,0.00,,,0.00,Wunderground v.1.15,2015-07-27 21:32:00,
2015-07-27 14:37:00,101.6,50.2,29.66,WNW,294,1.0,10.0,18,0.00,,,0.00,Wunderground v.1.15,2015-07-27 21:37:00,
2015-07-27 14:42:00,101.2,49.9,29.66,WNW,298,0.0,3.0,18,0.00,,,0.00,Wunderground v.1.15,2015-07-27 21:42:00,
2015-07-27 14:47:00,100.6,50.8,29.66,NW,323,3.0,12.0,19,0.00,,,0.00,Wunderground v.1.15,2015-07-27 21:47:00,
2015-07-27 14:52:00,100.3,50.6,29.65,WNW,282,1.0,5.0,19,0.00,,,0.00,Wunderground v.1.15,2015-07-27 21:52:00,
2015-07-27 14:57:00,100.5,50.8,29.65,NW,306,0.0,8.0,19,0.00,,,0.00,Wunderground v.1.15,2015-07-27 21:57:00,
2015-07-27 15:02:00,101.0,51.2,29.65,NW,316,1.0,6.0,19,0.00,,,0.00,Wunderground v.1.15,2015-07-27 22:02:00,
2015-07-27 15:07:00,101.6,51.6,29.65,NW,318,0.0,6.0,19,0.00,,,0.00,Wunderground v.1.15,2015-07-27 22:07:00,
2015-07-27 15:12:00,102.1,52.1,29.65,NNW,346,5.0,6.0,19,0.00,,,0.00,Wunderground v.1.15,2015-07-27 22:12:00,
2015-07-27 15:17:00,102.7,51.1,29.64,NNW,342,3.0,7.0,18,0.00,,,0.00,Wunderground v.1.15,2015-07-27 22:17:00,
2015-07-27 15:22:00,103.0,51.3,29.64,West,279,4.0,9.0,18,0.00,,,0.00,Wunderground v.1.15,2015-07-27 22:22:00,
2015-07-27 15:27:00,103.4,50.1,29.64,WNW,296,2.0,9.0,17,0.00,,,0.00,Wunderground v.1.15,2015-07-27 22:27:00,
2015-07-27 15:37:00,103.5,50.2,29.63,NW,306,3.0,7.0,17,0.00,,,0.00,Wunderground v.1.15,2015-07-27 22:37:00,
2015-07-27 15:42:00,103.3,50.0,29.64,WNW,296,0.0,5.0,17,0.00,,,0.00,Wunderground v.1.15,2015-07-27 22:42:00,
2015-07-27 15:47:00,103.4,50.1,29.63,WNW,290,6.0,6.0,17,0.00,,,0.00,Wunderground v.1.15,2015-07-27 22:47:00,
2015-07-27 15:52:00,103.3,48.4,29.63,NNW,329,5.0,9.0,16,0.00,,,0.00,Wunderground v.1.15,2015-07-27 22:52:00,
2015-07-27 15:57:00,103.3,48.4,29.63,NW,309,0.0,9.0,16,0.00,,,0.00,Wunderground v.1.15,2015-07-27 22:57:00,
2015-07-27 16:02:00,103.2,48.3,29.63,West,262,9.0,10.0,16,0.00,,,0.00,Wunderground v.1.15,2015-07-27 23:02:00,
2015-07-27 16:07:00,103.0,48.2,29.63,NW,310,3.0,10.0,16,0.00,,,0.00,Wunderground v.1.15,2015-07-27 23:07:00,
2015-07-27 16:12:00,102.7,47.9,29.63,WNW,287,0.0,6.0,16,0.00,,,0.00,Wunderground v.1.15,2015-07-27 23:12:00,
2015-07-27 16:18:00,102.4,47.7,29.63,WNW,287,2.0,6.0,16,0.00,,,0.00,Wunderground v.1.15,2015-07-27 23:18:00,
2015-07-27 16:23:00,101.9,48.9,29.63,WNW,302,2.0,4.0,17,0.00,,,0.00,Wunderground v.1.15,2015-07-27 23:23:00,
2015-07-27 16:28:00,101.7,48.7,29.62,NW,317,0.0,7.0,17,0.00,,,0.00,Wunderground v.1.15,2015-07-27 23:28:00,
2015-07-27 16:33:00,101.8,50.3,29.62,NW,325,0.0,6.0,18,0.00,,,0.00,Wunderground v.1.15,2015-07-27 23:33:00,
2015-07-27 16:38:00,102.0,50.5,29.62,WNW,296,2.0,8.0,18,0.00,,,0.00,Wunderground v.1.15,2015-07-27 23:38:00,
2015-07-27 16:43:00,102.3,50.8,29.62,West,279,6.0,7.0,18,0.00,,,0.00,Wunderground v.1.15,2015-07-27 23:43:00,
2015-07-27 16:48:00,102.6,51.0,29.62,NNW,331,2.0,7.0,18,0.00,,,0.00,Wunderground v.1.15,2015-07-27 23:48:00,
2015-07-27 16:53:00,102.9,49.7,29.62,NNW,330,0.0,4.0,17,0.00,,,0.00,Wunderground v.1.15,2015-07-27 23:53:00,
2015-07-27 16:58:00,102.6,49.5,29.61,NNW,336,4.0,7.0,17,0.00,,,0.00,Wunderground v.1.15,2015-07-27 23:58:00,
2015-07-27 17:03:00,101.9,50.4,29.61,West,276,1.0,8.0,18,0.00,,,0.00,Wunderground v.1.15,2015-07-28 00:03:00,
2015-07-27 17:08:00,101.4,50.0,29.62,West,276,0.0,8.0,18,0.00,,,0.00,Wunderground v.1.15,2015-07-28 00:08:00,
2015-07-27 17:13:00,101.1,51.2,29.62,West,277,0.0,2.0,19,0.00,,,0.00,Wunderground v.1.15,2015-07-28 00:13:00,
2015-07-27 17:18:00,100.9,51.1,29.61,WNW,292,5.0,5.0,19,0.00,,,0.00,Wunderground v.1.15,2015-07-28 00:18:00,
2015-07-27 17:23:00,100.5,50.8,29.61,West,279,2.0,7.0,19,0.00,,,0.00,Wunderground v.1.15,2015-07-28 00:23:00,
2015-07-27 17:28:00,100.1,51.8,29.61,NW,311,3.0,7.0,20,0.00,,,0.00,Wunderground v.1.15,2015-07-28 00:28:00,
2015-07-27 17:33:00,99.8,51.6,29.61,NW,312,0.0,2.0,20,0.00,,,0.00,Wunderground v.1.15,2015-07-28 00:33:00,
2015-07-27 17:38:00,99.6,51.4,29.61,NW,319,2.0,6.0,20,0.00,,,0.00,Wunderground v.1.15,2015-07-28 00:38:00,
2015-07-27 17:43:00,99.2,52.4,29.61,NW,318,0.0,3.0,21,0.00,,,0.00,Wunderground v.1.15,2015-07-28 00:43:00,
2015-07-27 17:48:00,98.9,50.8,29.61,WNW,293,1.0,5.0,20,0.00,,,0.00,Wunderground v.1.15,2015-07-28 00:48:00,
2015-07-27 17:53:00,98.5,51.8,29.61,West,279,0.0,5.0,21,0.00,,,0.00,Wunderground v.1.15,2015-07-28 00:53:00,
2015-07-27 18:03:00,97.9,52.6,29.61,West,279,2.0,6.0,22,0.00,,,0.00,Wunderground v.1.15,2015-07-28 01:03:00,
2015-07-27 18:08:00,97.3,55.6,29.62,WSW,253,7.0,18.0,25,0.00,,,0.00,Wunderground v.1.15,2015-07-28 01:08:00,
2015-07-27 18:18:00,95.6,55.2,29.62,West,273,5.0,16.0,26,0.00,,,0.00,Wunderground v.1.15,2015-07-28 01:18:00,
2015-07-27 18:24:00,95.0,55.8,29.62,WNW,290,4.0,10.0,27,0.00,,,0.00,Wunderground v.1.15,2015-07-28 01:24:00,